Chamberlain, SD

1:21 AM CDT on March 25, 2017 (GMT -0500)
Chamberlain

Weather History for K9V9 - November, 2012

Change the Weather History Date:

Thursday, November 29, 2012

  Actual Average Record
Temperature  
Mean Temperature 28 °F -  
Max Temperature 41 °F 37 °F 60 °F (1998)
Min Temperature 16 °F 19 °F 3 °F (2001)
Degree Days  
Heating Degree Days 36    
Moisture  
Dew Point 20 °F    
Average Humidity 74    
Maximum Humidity 89    
Minimum Humidity 49    
Precipitation  
Precipitation 0.00 in - - ()
Sea Level Pressure  
Sea Level Pressure 30.02 in    
Wind  
Wind Speed 6 mph (NNE)    
Max Wind Speed 16 mph    
Max Gust Speed -    
Averages and records for this station are not official NWS values.
T = Trace of Precipitation, MM = Missing Value Source: NWS Daily Summary

Daily Weather History Graph

Daily Weather History Graph

Search for Another Location

Airport or City:

Trip Planner

Search our weather history database for the weather conditions in past years. The results will help you decide how hot, cold, wet, or windy it might be!

Date:

Astronomy

Nov. 29, 2012 Rise Set
Actual Time 7:49 AM CST 5:01 PM CST
Civil Twilight 7:17 AM CST 5:33 PM CST
Nautical Twilight 6:41 AM CST 6:09 PM CST
Astronomical Twilight 6:07 AM CST 6:44 PM CST
Moon 6:05 PM CST (11/29) 8:37 AM CST (11/29)
Length of Visible Light 10h 16m
Length of Day
9h 12m
Full, 99% of the Moon is Illuminated
Nov 29
Full
Dec 6
Last Quarter
Dec 13
New
Dec 19
First Quarter
Dec 28
Full

Hourly Weather History & Observations

Time (CST) Temp. Windchill Dew Point Humidity Pressure Visibility Wind Dir Wind Speed Gust Speed Precip Events Conditions
12:52 AM 26.1 °F 20.5 °F 19.0 °F 75% 30.05 in - West 4.6 mph - N/A   Unknown
1:52 AM 23.0 °F 15.8 °F 17.1 °F 78% 30.04 in - NW 5.8 mph - N/A   Unknown
2:52 AM 21.9 °F - 17.1 °F 82% 30.04 in - Calm Calm - N/A   Unknown
3:52 AM 21.0 °F - 16.0 °F 81% 30.02 in - Calm Calm - N/A   Unknown
4:52 AM 21.9 °F 13.4 °F 17.1 °F 82% 30.02 in - NW 6.9 mph - N/A   Unknown
5:52 AM 19.9 °F - 16.0 °F 85% 30.02 in - Calm Calm - N/A   Unknown
6:52 AM 19.9 °F 14.9 °F 17.1 °F 89% 30.02 in - ENE 3.5 mph - N/A   Unknown
7:52 AM 16.0 °F 7.4 °F 12.0 °F 84% 30.04 in - NE 5.8 mph - N/A   Unknown
8:52 AM 19.9 °F - 16.0 °F 85% 30.06 in - Calm Calm - N/A   Unknown
9:52 AM 23.0 °F 13.9 °F 18.0 °F 81% 30.05 in - East 8.1 mph - N/A   Unknown
10:52 AM 27.0 °F 20.5 °F 19.9 °F 75% 30.03 in - East 5.8 mph - N/A   Unknown
11:52 AM 32.0 °F 22.5 °F 21.9 °F 66% 29.97 in - ESE 12.7 mph - N/A   Unknown
12:52 PM 37.0 °F 30.4 °F 23.0 °F 57% 29.95 in - ESE 9.2 mph - N/A   Unknown
1:52 PM 41.0 °F 33.9 °F 23.0 °F 49% 29.92 in - East 12.7 mph - N/A   Unknown
2:52 PM 39.9 °F 31.4 °F 23.0 °F 51% 29.91 in - East 16.1 mph - N/A   Unknown
3:52 PM 39.9 °F 32.5 °F 23.0 °F 51% 29.92 in - East 12.7 mph - N/A   Unknown
4:52 PM 36.0 °F 28.0 °F 21.9 °F 57% 29.95 in - NE 11.5 mph - N/A   Unknown
5:52 PM 33.1 °F 24.4 °F 23.0 °F 66% 29.99 in - North 11.5 mph - N/A   Unknown
6:52 PM 30.9 °F 21.7 °F 21.9 °F 69% 30.03 in - North 11.5 mph - N/A   Unknown
7:52 PM 28.0 °F 17.0 °F 21.9 °F 78% 30.06 in - North 13.8 mph - N/A   Unknown
8:52 PM 27.0 °F 16.7 °F 21.9 °F 81% 30.08 in - North 11.5 mph - N/A   Unknown
9:52 PM 25.0 °F 16.3 °F 21.0 °F 85% 30.09 in - North 8.1 mph - N/A   Unknown
10:52 PM 24.1 °F 14.4 °F 19.9 °F 84% 30.09 in - North 9.2 mph - N/A   Unknown
11:52 PM 23.0 °F 13.9 °F 19.0 °F 85% 30.09 in - NNW 8.1 mph - N/A   Unknown